Regional Weather Roundup
Issued by NWS Sterling, VA

Home | Current Version | Previous Version | Text Only | Print | Product List | Glossary Off
Versions: 1 2 3 4 5 6 7 8 9 10 11 12 13 14 15 16 17 18 19 20 21 22 23 24 25 26 27 28 29 30 31 32 33 34 35 36 37 38 39 40 41 42 43 44 45 46 47 48 49 50

656
ASUS41 KLWX 202010
RWRLWX

REGIONAL WEATHER ROUNDUP
NATIONAL WEATHER SERVICE BALTIMORE MD/WASHINGTON DC
300 PM EST FRI JAN 20 2017

Note: "FAIR" indicates few or no clouds below 12,000 feet
with no significant weather and/or obstructions to visibility.
 TC=TEMPERATURE CELSIUS

 * =Non NWS site. Station does not report precipitation (e.g. rain,
    snow, etc.), thunder, or fog.

DCZ001-MDZ009-015-VAZ040>042-051-053>054-202100-
WASHINGTON METRO

CITY           SKY/WX    TMP DP  RH WIND       PRES   REMARKS
WASHINGTON NAT CLOUDY    48  45  89 S6        29.87F
DULLES         LGT RAIN  48  44  86 S5        29.85F
ANDREWS AFB    DRIZZLE   46  43  87 SE7       29.86F
FT BELVOIR     DRIZZLE   46  43  87 SE7       29.86F
QUANTICO       CLOUDY    46  46 100 SW5       29.89S
COLLEGE PARK*  CLOUDY    45  41  87 SE3       29.86F
LEESBURG*      CLOUDY    48  48 100 SE6       29.85F
MANASSAS*      CLOUDY   N/A N/A N/A S6        29.86F
GAITHERSBURG*  CLOUDY    45  39  81 SE8       29.89S

$$

MDZ006>007-011-014-202100-
BALTIMORE METRO

CITY           SKY/WX    TMP DP  RH WIND       PRES   REMARKS
BWI AIRPORT    CLOUDY    44  42  93 SE9       29.89S
MD SCIENCE CTR   N/A     44  39  82 MISG      29.90F
MARTIN STATE   CLOUDY    43  43 100 E3        29.92S FOG
ANNAPOLIS      CLOUDY    43  40  89 SE7       29.90F FOG
FORT MEADE*    CLOUDY    43  41  93 SE7       29.91R

$$

MDZ012-015-019>023-202100-
MARYLAND EASTERN SHORE

CITY           SKY/WX    TMP DP  RH WIND       PRES   REMARKS
OCEAN CITY     LGT RAIN  45  44  97 CALM      29.94S FOG
SALISBURY      CLOUDY    48  46  93 SE6       29.91F
BAY BRIDGE AP* CLOUDY    45  43  93 SE6       29.90S FOG
CAMBRIDGE*     CLOUDY    46  43  87 SE6       29.90F
EASTON*        DRIZZLE   46  43  87 SE7       29.94F

$$

MDZ017>025-202100-
SOUTHERN MARYLAND

CITY           SKY/WX    TMP DP  RH WIND       PRES   REMARKS
PATUXENT RIVER CLOUDY    44  43  96 SE7       29.89F
ST INIGOES     CLOUDY    47  44  90 E6        29.89F
LEONARDTOWN*   CLOUDY    46  43  87 CALM      29.90S

$$

MDZ003>005-202100-
NORTH CENTRAL MARYLAND

CITY           SKY/WX    TMP DP  RH WIND       PRES   REMARKS
FREDERICK*     CLOUDY    43  43 100 CALM      29.88F FOG
HAGERSTOWN APT CLOUDY    45  40  82 S7        29.82F
WESTMINSTER*     N/A     41  41 100 SE6       29.85S FOG

$$

MDZ501>502-202100-
WESTERN MARYLAND

CITY           SKY/WX    TMP DP  RH WIND       PRES   REMARKS
OAKLAND*         N/A     46  46 100 W10G17    29.77R
CUMBERLAND*    PTSUNNY   45  41  87 CALM      29.84S

$$

VAZ025>031-202100-
SHENANDOAH VALLEY

CITY           SKY/WX    TMP DP  RH WIND       PRES   REMARKS
WINCHESTER*    CLOUDY    52  43  71 SE3       29.80S
FRONT ROYAL*   CLEAR     54  45  71 N3        29.78S
LURAY*         CLEAR     57  50  77 SW10      29.79S
NEW MARKET*    CLEAR     57  47  69 S12       29.79S
STAUNTON*      SUNNY     55  47  74 SW8       29.82F
WAYNESBORO*    CLOUDY    54  47  77 E3        29.81F

$$

WVZ021-048>050-054>055-202100-
EASTERN WEST VIRGINIA PANHANDLE

CITY           SKY/WX    TMP DP  RH WIND       PRES   REMARKS
MARTINSBURG    CLOUDY    47  42  83 VRB5      29.81F
PETERSBURG*    PTSUNNY   59  50  73 CALM      29.77S

$$

VAZ036>039-050-202100-
CENTRAL FOOTHILLS

CITY           SKY/WX    TMP DP  RH WIND       PRES   REMARKS
CHARLOTTESVILL CLOUDY    51  47  86 S7        29.83F
CULPEPER*      CLOUDY    51  47  86 S7        29.86S
ORANGE*          N/A     50  50 100 S7        29.86S
GORDONSVILLE*  CLOUDY    49  47  95 S6        29.84S
WARRENTON*     CLOUDY    51  45  78 S7        29.85R

$$

VAZ055>057-202100-
NORTH AND CENTRAL PIEDMONT

CITY           SKY/WX    TMP DP  RH WIND       PRES   REMARKS
FREDERICKSBRG* CLOUDY    49  49 100 S6        29.87S
STAFFORD*      CLOUDY    47  47 100 S3        29.91S FOG

$$

NCZ024-NYZ072-PAZ021-071-VAZ022-071-202100-
OTHER REGIONAL OBSERVATIONS

CITY           SKY/WX    TMP DP  RH WIND       PRES   REMARKS
NEW YORK CITY  CLOUDY    45  34  65 S3        29.95S
PHILADELPHIA   LGT RAIN  41  38  89 E5        29.94F
PITTSBURGH     CLOUDY    54  52  93 SW5       29.71R
ROANOKE        PTSUNNY   53  47  79 SE3       29.85S
RICHMOND       CLOUDY    48  47  96 SE3       29.87F FOG
RALEIGH        CLOUDY    57  53  86 CALM      29.85F

$$

ANZ530>537-202100-
MARINE OBSERVATIONS

STATION/POSITION TIME  TEMP    WIND        PRES
                       AIR SEA DIR/SP/G
                 (UTC) (F)     (DEG/KT/KT) (MB)
THOMAS PT LIGHT  2000   41 40  160/  3/  3   N/A
BALT KEY BRIDGE  1936   41      90/ 10/ 10 1012.3F
COVE POINT       1936   42     180/  9/  9 1012.9F
LEWISETTA        1936   48 44  180/  4/  5 1012.3S
SOLOMONS ISLAND  1936   43 41  110/  6/  7   N/A
PINEY POINT      1948          140/  9/  9   N/A

$$





USA.gov is the U.S. government's official web portal to all federal, state and local government web resources and services.